Weather History for Mammoth, CA

Change the Weather History Date:

Monday, July 8, 2013

  Actual Average Record
Temperature  
Mean Temperature 70 °F -  
Max Temperature 82 °F 76 °F 89 °F (2002)
Min Temperature 57 °F 63 °F 39 °F (2011)
Cooling Degree Days 6    
Growing Degree Days 20 (Base 50)    
Moisture  
Dew Point 24 °F    
Average Humidity 17    
Maximum Humidity 31    
Minimum Humidity 12    
Precipitation  
Precipitation 0.00 in - - ()
Sea Level Pressure  
Sea Level Pressure 30.27 in    
Wind  
Wind Speed 13 mph (SW)    
Max Wind Speed 24 mph    
Max Gust Speed 30 mph    
Visibility 10 miles    
Events      
Averages and records for this station are not official NWS values.
T = Trace of Precipitation, MM = Missing Value Source: NWS Daily Summary

Daily Weather History Graph

Daily Weather History Graph

Search for Another Location

Airport:

Trip Planner

Search our weather history database for the weather conditions in past years. The results will help you decide how hot, cold, wet, or windy it might be!

Date:

Astronomy

Jul. 08, 2013 Rise Set
Actual Time 5:41 AM PDT 8:19 PM PDT
Civil Twilight 5:10 AM PDT 8:49 PM PDT
Nautical Twilight 4:32 AM PDT 9:28 PM PDT
Astronomical Twilight 3:49 AM PDT 10:10 PM PDT
Moon 6:13 AM PDT (7/8) 8:26 PM PDT (7/8)
Length of Visible Light 15h 39m
Length of Day
14h 37m
New Moon, 0% of the Moon is Illuminated
Jul 8
New Moon
Jul 15
First Quarter
Jul 22
Full
Jul 29
Last Quarter
Aug 6
New

Hourly Weather History & Observations

Time (PDT) Temp. Dew Point Humidity Pressure Visibility Wind Dir Wind Speed Gust Speed Precip Events Conditions
12:15 AM 68.0 °F 19.4 °F 16% 30.22 in 10.0 mi SSW 16.1 mph 27.6 mph N/A   Clear
12:35 AM 68.0 °F 21.2 °F 17% 30.22 in 10.0 mi SSW 17.3 mph 26.5 mph N/A   Clear
12:55 AM 68.0 °F 21.2 °F 17% 30.22 in 10.0 mi SSW 17.3 mph 27.6 mph N/A   Clear
1:15 AM 68.0 °F 21.2 °F 17% 30.22 in 10.0 mi SSW 10.4 mph 29.9 mph N/A   Clear
1:35 AM 66.2 °F 21.2 °F 18% 30.22 in 10.0 mi SE 6.9 mph 19.6 mph N/A   Clear
1:55 AM 66.2 °F 21.2 °F 18% 30.23 in 10.0 mi South 9.2 mph - N/A   Clear
2:15 AM 62.6 °F 23.0 °F 22% 30.23 in 10.0 mi South 4.6 mph - N/A   Clear
2:35 AM 62.6 °F 23.0 °F 22% 30.22 in 10.0 mi South 8.1 mph - N/A   Clear
2:55 AM 66.2 °F 21.2 °F 18% 30.22 in 10.0 mi SSW 12.7 mph 24.2 mph N/A   Clear
3:15 AM 66.2 °F 21.2 °F 18% 30.22 in 10.0 mi SSW 13.8 mph 27.6 mph N/A   Clear
3:35 AM 64.4 °F 21.2 °F 19% 30.22 in 10.0 mi ESE 10.4 mph 21.9 mph N/A   Clear
3:55 AM 64.4 °F 21.2 °F 19% 30.22 in 10.0 mi South 17.3 mph 26.5 mph N/A   Clear
4:15 AM 66.2 °F 21.2 °F 18% 30.22 in 10.0 mi SSW 20.7 mph 27.6 mph N/A   Clear
4:35 AM 66.2 °F 21.2 °F 18% 30.23 in 10.0 mi South 16.1 mph 26.5 mph N/A   Clear
4:55 AM 66.2 °F 21.2 °F 18% 30.23 in 10.0 mi South 17.3 mph 26.5 mph N/A   Clear
5:15 AM 64.4 °F 21.2 °F 19% 30.24 in 10.0 mi South 11.5 mph 25.3 mph N/A   Clear
5:35 AM 64.4 °F 21.2 °F 19% 30.24 in 10.0 mi SSW 10.4 mph 26.5 mph N/A   Clear
5:55 AM 64.4 °F 21.2 °F 19% 30.24 in 10.0 mi South 11.5 mph 25.3 mph N/A   Clear
6:15 AM 60.8 °F 24.8 °F 25% 30.25 in 10.0 mi SE 8.1 mph 24.2 mph N/A   Clear
6:35 AM 60.8 °F 24.8 °F 25% 30.25 in 10.0 mi SSE 6.9 mph - N/A   Clear
6:55 AM 62.6 °F 24.8 °F 24% 30.26 in 10.0 mi South 6.9 mph - N/A   Clear
7:15 AM 68.0 °F 21.2 °F 17% 30.26 in 10.0 mi South 18.4 mph 26.5 mph N/A   Clear
7:35 AM 68.0 °F 23.0 °F 18% 30.27 in 10.0 mi South 13.8 mph 24.2 mph N/A   Clear
7:55 AM 69.8 °F 21.2 °F 16% 30.27 in 10.0 mi South 13.8 mph 26.5 mph N/A   Clear
8:15 AM 69.8 °F 21.2 °F 16% 30.28 in 10.0 mi SSW 15.0 mph 25.3 mph N/A   Clear
8:35 AM 71.6 °F 21.2 °F 15% 30.28 in 10.0 mi SW 16.1 mph 26.5 mph N/A   Clear
8:55 AM 71.6 °F 21.2 °F 15% 30.29 in 10.0 mi SW 13.8 mph 25.3 mph N/A   Clear
9:15 AM 71.6 °F 21.2 °F 15% 30.28 in 10.0 mi SSW 16.1 mph 25.3 mph N/A   Clear
9:35 AM 73.4 °F 23.0 °F 15% 30.29 in 10.0 mi SW 15.0 mph 24.2 mph N/A   Clear
9:55 AM 73.4 °F 23.0 °F 15% 30.29 in 10.0 mi SW 15.0 mph 25.3 mph N/A   Clear
10:15 AM 75.2 °F 23.0 °F 14% 30.29 in 10.0 mi SW 12.7 mph 23.0 mph N/A   Clear
10:35 AM 75.2 °F 23.0 °F 14% 30.29 in 10.0 mi SSW 11.5 mph 24.2 mph N/A   Clear
10:55 AM 77.0 °F 23.0 °F 13% 30.29 in 10.0 mi SW 15.0 mph 26.5 mph N/A   Clear
11:15 AM 77.0 °F 23.0 °F 13% 30.30 in 10.0 mi West 13.8 mph 26.5 mph N/A   Clear
11:35 AM 77.0 °F 23.0 °F 13% 30.29 in 10.0 mi South 15.0 mph 23.0 mph N/A   Clear
11:55 AM 78.8 °F 23.0 °F 13% 30.29 in 10.0 mi SW 15.0 mph 23.0 mph N/A   Clear
12:15 PM 78.8 °F 23.0 °F 13% 30.29 in 10.0 mi WSW 15.0 mph 25.3 mph N/A   Clear
12:35 PM 80.6 °F 24.8 °F 13% 30.29 in 10.0 mi SW 13.8 mph 21.9 mph N/A   Clear
12:55 PM 80.6 °F 24.8 °F 13% 30.28 in 10.0 mi SW 10.4 mph 23.0 mph N/A   Clear
1:15 PM 80.6 °F 24.8 °F 13% 30.29 in 10.0 mi WSW 13.8 mph 25.3 mph N/A   Clear
1:35 PM 82.4 °F 24.8 °F 12% 30.29 in 10.0 mi West 17.3 mph 27.6 mph N/A   Clear
1:55 PM 82.4 °F 24.8 °F 12% 30.29 in 10.0 mi WSW 21.9 mph 26.5 mph N/A   Clear
2:15 PM 80.6 °F 24.8 °F 13% 30.29 in 10.0 mi WSW 17.3 mph 26.5 mph N/A   Clear
2:35 PM 82.4 °F 24.8 °F 12% 30.28 in 10.0 mi WSW 16.1 mph 25.3 mph N/A   Clear
2:55 PM 82.4 °F 26.6 °F 13% 30.28 in 10.0 mi WSW 15.0 mph 28.8 mph N/A   Clear
3:15 PM 82.4 °F 26.6 °F 13% 30.28 in 10.0 mi West 18.4 mph 29.9 mph N/A   Clear
3:35 PM 82.4 °F 26.6 °F 13% 30.28 in 10.0 mi West 21.9 mph 27.6 mph N/A   Clear
3:55 PM 80.6 °F 26.6 °F 14% 30.28 in 10.0 mi West 24.2 mph 29.9 mph N/A   Clear
4:15 PM 82.4 °F 26.6 °F 13% 30.27 in 10.0 mi WNW 18.4 mph 28.8 mph N/A   Clear
4:35 PM 80.6 °F 26.6 °F 14% 30.28 in 10.0 mi WSW 13.8 mph 29.9 mph N/A   Clear
4:55 PM 82.4 °F 26.6 °F 13% 30.27 in 10.0 mi WSW 5.8 mph - N/A   Clear
5:15 PM 80.6 °F 26.6 °F 14% 30.27 in 10.0 mi SW 8.1 mph 23.0 mph N/A   Clear
5:35 PM 80.6 °F 26.6 °F 14% 30.27 in 10.0 mi WSW 10.4 mph 20.7 mph N/A   Clear
5:55 PM 80.6 °F 26.6 °F 14% 30.26 in 10.0 mi SW 16.1 mph 23.0 mph N/A   Clear
6:15 PM 78.8 °F 26.6 °F 15% 30.26 in 10.0 mi SW 20.7 mph 26.5 mph N/A   Clear
6:35 PM 78.8 °F 26.6 °F 15% 30.27 in 10.0 mi SSW 16.1 mph 26.5 mph N/A   Clear
6:55 PM 77.0 °F 26.6 °F 16% 30.27 in 10.0 mi SW 13.8 mph 23.0 mph N/A   Clear
7:15 PM 77.0 °F 26.6 °F 16% 30.28 in 10.0 mi SW 11.5 mph 24.2 mph N/A   Clear
7:35 PM 75.2 °F 26.6 °F 17% 30.29 in 10.0 mi SW 10.4 mph 18.4 mph N/A   Clear
7:55 PM 73.4 °F 26.6 °F 18% 30.29 in 10.0 mi WNW 8.1 mph 17.3 mph N/A   Clear
8:15 PM 71.6 °F 26.6 °F 19% 30.29 in 10.0 mi NW 10.4 mph 19.6 mph N/A   Clear
8:35 PM 69.8 °F 26.6 °F 20% 30.29 in 10.0 mi WSW 3.5 mph - N/A   Clear
8:55 PM 69.8 °F 26.6 °F 20% 30.30 in 10.0 mi SW 5.8 mph - N/A   Clear
9:15 PM 68.0 °F 26.6 °F 21% 30.31 in 10.0 mi WSW 9.2 mph - N/A   Clear
9:35 PM 68.0 °F 26.6 °F 21% 30.31 in 10.0 mi West 8.1 mph - N/A   Clear
9:55 PM 66.2 °F 24.8 °F 21% 30.32 in 10.0 mi NNE 3.5 mph - N/A   Clear
10:15 PM 64.4 °F 24.8 °F 22% 30.32 in 10.0 mi WNW 10.4 mph - N/A   Clear
10:35 PM 60.8 °F 24.8 °F 25% 30.32 in 10.0 mi Calm Calm - N/A   Clear
10:55 PM 60.8 °F 26.6 °F 27% 30.33 in 10.0 mi Calm Calm - N/A   Clear
11:15 PM 59.0 °F 28.4 °F 31% 30.33 in 10.0 mi Calm Calm - N/A   Clear
11:35 PM 59.0 °F 24.8 °F 27% 30.34 in 10.0 mi Calm Calm - N/A   Clear
11:55 PM 57.2 °F 24.8 °F 29% 30.34 in 10.0 mi Calm Calm - N/A   Clear